This is the latest recevied weather packets stored in our database for station/object KE0WPC. If no packets are shown the sender has not sent any weather packets the latest 10 day(s).
| Time | Temp. | Humidity | Pressure | Rain* | Wind** | Luminosity | Snow |
|---|---|---|---|---|---|---|---|
| 1777771615 | 16.67° C | 23% | 1009.7 hPa | - | - | - | - |
| 1777771312 | 17.22° C | 22% | 1009.7 hPa | - | - | - | - |
| 1777771008 | 17.22° C | 20% | 1010.1 hPa | - | - | - | - |
| 1777770706 | 17.78° C | 19% | 1009.3 hPa | - | - | - | - |
| 1777770402 | 17.78° C | 19% | 1010.1 hPa | - | - | - | - |
| 1777770099 | 17.78° C | 18% | 1009.7 hPa | - | - | - | - |
| 1777769796 | 18.33° C | 16% | 1009.7 hPa | - | - | - | - |
| 1777769493 | 18.33° C | 17% | 1010.1 hPa | - | - | - | - |
| 1777769189 | 18.89° C | 18% | 1010.4 hPa | - | - | - | - |
| 1777768888 | 18.89° C | 18% | 1010.1 hPa | - | - | - | - |
| 1777768585 | 18.89° C | 18% | 1010.4 hPa | - | - | - | - |
| 1777768282 | 18.89° C | 17% | 1010.7 hPa | - | - | - | - |
| 1777767979 | 18.89° C | 18% | 1010.7 hPa | - | - | - | - |
| 1777767675 | 18.89° C | 17% | 1011.1 hPa | - | - | - | - |
| 1777767371 | 18.89° C | 18% | 1011.1 hPa | - | - | - | - |
| 1777767069 | 18.89° C | 17% | 1011.1 hPa | - | - | - | - |
| 1777766766 | 18.89° C | 17% | 1011.1 hPa | - | - | - | - |
| 1777766463 | 18.89° C | 17% | 1011.1 hPa | - | - | - | - |
| 1777766160 | 18.89° C | 12% | 1011.1 hPa | - | - | - | - |
| 1777765858 | 18.89° C | 12% | 1011.1 hPa | - | - | - | - |
| 1777765553 | 18.89° C | 12% | 1011.5 hPa | - | - | - | - |
| 1777765251 | 18.89° C | 12% | 1011.5 hPa | - | - | - | - |
| 1777764951 | 19.44° C | 16% | 1011.5 hPa | - | - | - | - |
| 1777764649 | 18.89° C | 16% | 1011.9 hPa | - | - | - | - |
| 1777764344 | 18.89° C | 13% | 1011.9 hPa | - | - | - | - |
* Rain since midnight (hover to see other rain measurements)
** Current wind speed in m/s (hover to see current wind gust speed)